Tracking 19792 objects as of 16-Jul-2019
HD Live streaming from Space Station
objects crossing your sky now

COSMOS 1275 DEB

Track COSMOS 1275 DEB now!
10-day predictions


NORAD ID: 42212
Int'l Code: 1981-053UC
Perigee: 928.9 km
Apogee: 1,159.4 km
Inclination: 83.1 °
Period: 105.9 minutes
Semi major axis: 7415 km
RCS: Unknown
Launch date: June 4, 1981
Source: Commonwealth of Independent States (former USSR) (CIS)
Launch site: PLESETSK MISSILE AND SPACE COMPLEX (PKMTR)

Note: This is SATELLITE DEBRIS
aabbcc
Your satellite tracking list
Your tracking list is empty




NASA's NSSDC Master Catalog

Two Line Element Set (TLE):
1 42212U 81053UC  19197.20745698  .00000284  00000-0  33586-3 0  9998
2 42212  83.0532 148.3281 0155396 351.2553  72.1836 13.59640461844826
Source of the keplerian elements: AFSPC